Temp
77 76 71 68 60 59 55 56 61 62 59 57 61 54 49 52 50 46 61 65 68 68 71 71 76 77 77 77 77 76 76 76 76 76 77 77 77 76 76 77 78 78 79 79 79 79 79 79 79
74 79 68 62 54 51 53 59 55 58 59 62 59 58 53 48 58 59 60 67 68 68 70 70 77 77 77 77 76 76 76 76 76 76 76 76 76 76 76 76 76 77 77 77 78 78 78 78 78
76 77 64 58 52 46 48 55 56 62 63 62 55 55 53 53 59 61 66 67 68 68 69 71 76 75 76 77 76 76 76 76 76 76 76 77 77 76 76 75 75 75 75 75 75 76 77 77 77
71 68 64 54 47 51 52 53 59 61 61 61 56 48 55 64 62 65 68 68 67 69 70 73 75 75 75 76 76 76 76 76 76 76 76 76 77 77 77 76 75 75 74 74 73 74 74 75 75
67 63 54 49 49 52 53 59 57 54 55 54 56 48 51 58 62 64 65 69 66 66 66 68 74 75 74 74 74 74 75 75 75 76 76 76 76 76 77 77 76 75 74 74 74 73 73 73 73
63 62 50 44 49 54 53 57 56 55 55 55 53 50 51 59 59 61 62 60 62 61 64 65 69 71 71 71 72 73 73 72 73 73 73 74 75 76 75 76 76 75 75 74 74 74 74 73 73
61 56 50 48 48 50 54 58 52 51 52 51 58 48 50 55 58 61 58 58 59 60 61 60 59 65 67 69 70 71 71 71 71 71 70 70 70 71 72 74 74 74 74 74 74 74 74 74 74
62 58 51 48 48 47 54 55 56 52 49 60 57 46 44 54 58 58 57 57 58 59 58 57 56 57 56 57 68 69 69 69 69 68 68 68 67 67 67 69 70 73 74 74 74 74 74 74 74
66 50 46 50 51 49 55 52 56 57 52 54 54 51 53 58 59 57 55 55 55 59 56 56 56 56 56 58 63 62 65 67 67 63 65 63 58 60 61 66 68 72 73 74 74 73 73 74 70
57 47 50 56 52 47 51 52 52 50 48 48 51 53 56 56 52 51 51 50 51 52 53 55 54 54 54 61 56 52 55 52 53 54 54 53 53 56 63 63 66 68 69 71 72 72 72 68 62
56 49 54 54 54 54 51 49 53 48 44 46 46 48 52 52 51 50 51 50 50 51 52 55 54 54 52 53 53 49 51 50 50 51 52 51 57 51 53 53 55 56 61 59 61 59 58 58 57
52 56 57 56 57 55 49 52 47 48 47 52 51 49 51 49 49 49 49 49 49 50 53 54 54 52 52 52 50 49 50 52 50 52 51 48 48 48 50 51 51 53 55 55 54 53 56 56 58
51 52 54 54 54 52 53 48 47 47 50 53 54 52 49 49 49 50 50 51 50 49 51 52 52 52 55 50 49 48 50 51 52 50 52 50 48 52 51 50 50 52 51 53 53 52 53 54 56
55 54 52 54 53 53 49 47 50 48 51 51 51 47 47 48 48 48 50 48 47 49 49 51 52 56 50 54 48 48 51 52 49 50 50 52 53 52 52 51 50 49 50 53 52 52 52 52 54
56 48 50 50 51 49 51 43 42 47 50 47 45 43 46 47 48 47 49 47 46 51 52 53 55 56 54 51 49 52 48 53 49 50 51 52 52 54 52 51 49 48 50 50 52 53 53 51 53
52 48 41 49 51 50 49 34 44 47 47 43 42 40 43 46 46 45 51 51 49 52 49 54 56 53 52 52 52 52 52 50 48 49 50 51 53 51 51 50 46 48 48 48 48 49 49 49 49
47 40 42 46 52 48 45 35 43 46 45 42 40 40 41 43 45 48 52 53 52 53 52 50 51 50 50 49 50 50 50 48 49 50 49 49 50 52 49 50 51 48 47 46 47 49 48 48 47
40 39 43 42 45 44 39 37 42 45 43 39 38 38 39 43 46 48 52 53 54 52 49 50 49 49 49 48 48 48 48 48 47 48 48 50 50 51 51 51 50 47 45 45 45 45 46 46 47
45 42 42 43 48 41 38 37 41 42 40 38 39 40 39 41 45 49 52 52 51 50 49 47 46 47 48 47 45 45 45 47 47 48 48 48 47 48 48 49 49 48 46 49 46 46 45 44 45
47 42 39 44 46 40 37 36 39 41 39 38 38 37 37 43 46 48 50 50 49 48 47 46 47 48 47 46 46 45 46 46 47 48 49 49 49 47 47 47 48 49 48 47 46 47 44 43 45
43 41 37 40 42 41 37 31 35 40 39 41 41 38 42 43 44 46 47 48 47 46 45 47 47 47 46 46 45 44 45 44 44 45 45 47 48 48 47 46 46 47 46 45 45 44 44 41 43
38 46 44 42 37 29 37 22 28 33 35 38 36 38 40 43 45 46 46 46 46 46 48 47 46 45 45 45 43 41 40 39 41 42 43 44 46 46 47 47 46 47 48 43 43 46 43 43 41
43 47 42 42 37 33 33 24 24 30 31 34 37 39 41 44 44 44 45 46 46 48 47 47 46 45 45 44 44 42 41 41 42 42 42 43 44 45 45 46 47 45 47 48 47 46 43 44 42
49 42 42 38 34 27 29 27 19 25 30 34 37 39 41 43 44 45 46 46 45 47 46 46 45 45 46 45 44 43 42 42 42 42 41 42 43 44 44 45 45 46 46 47 46 45 42 42 43
42 33 27 30 26 26 30 24 23 32 35 35 35 38 41 42 43 43 43 43 44 43 44 45 43 43 45 45 44 44 43 43 41 41 41 41 41 42 43 43 43 44 46 47 48 46 45 44 42
37 31 24 24 22 23 31 20 26 34 36 38 39 40 42 42 42 42 43 42 44 44 43 43 42 42 44 44 44 45 45 43 42 41 40 41 41 42 44 44 43 44 45 45 47 47 47 46 43
37 29 33 27 23 19 23 25 32 36 35 36 37 39 39 40 41 42 43 43 43 42 42 42 41 42 43 44 44 44 44 42 41 41 41 40 41 43 45 45 43 44 44 44 44 45 46 48 46
38 38 27 24 12 15 18 16 19 27 29 33 34 36 38 40 41 42 42 42 43 43 42 43 42 41 43 43 44 44 44 44 43 42 40 41 42 44 43 43 43 44 44 44 43 43 45 46 46
32 29 28 26 22 11 10 18 25 27 31 31 34 37 38 39 40 41 42 43 43 43 42 41 42 41 42 42 44 44 44 44 43 41 40 41 44 44 43 43 43 43 44 44 43 44 44 44 44
34 29 25 16 16 16 11 16 32 30 34 35 35 37 38 40 40 43 42 41 41 41 40 41 42 42 43 43 42 43 44 44 41 40 40 41 42 45 44 44 43 44 44 44 43 43 45 43 42
MSLP
1012.15 1012.12 1012.33 1012.81 1014.11 1014.93 1016.30 1017.16 1016.67 1016.37 1017.26 1019.54 1017.99 1019.21 1021.87 1022.83 1023.68 1025.27 1024.96 1024.52 1023.93 1023.29 1022.74 1021.94 1021.18 1020.45 1020.07 1019.61 1019.21 1018.89 1018.64 1018.32 1018.00 1017.63 1017.20 1016.71 1016.23 1015.87 1015.55 1015.17 1014.75 1014.53 1014.48 1014.40 1014.27 1014.19 1014.23 1014.26 1014.32
1012.23 1012.28 1012.84 1013.58 1015.39 1016.81 1018.24 1019.00 1018.81 1018.54 1018.98 1019.05 1019.92 1021.34 1021.98 1023.91 1024.43 1024.92 1024.84 1024.01 1023.88 1023.45 1022.80 1022.26 1021.33 1020.87 1020.36 1019.92 1019.60 1019.26 1018.86 1018.48 1018.21 1017.92 1017.63 1017.26 1016.80 1016.44 1015.99 1015.50 1015.18 1014.79 1014.59 1014.48 1014.33 1014.17 1014.09 1014.08 1014.12
1012.20 1012.51 1013.71 1014.91 1017.36 1019.16 1019.88 1020.08 1019.78 1019.50 1019.43 1019.47 1021.17 1022.47 1023.45 1024.55 1024.89 1024.71 1024.33 1023.94 1023.77 1023.43 1022.86 1022.15 1021.56 1021.24 1020.76 1020.18 1019.81 1019.37 1019.09 1018.70 1018.31 1018.03 1017.78 1017.42 1017.05 1016.75 1016.48 1016.11 1015.68 1015.23 1014.95 1014.77 1014.48 1014.22 1014.04 1013.89 1013.95
1012.42 1013.26 1014.75 1016.96 1019.35 1020.71 1021.02 1021.02 1019.98 1019.38 1019.95 1020.59 1022.04 1023.66 1024.74 1024.77 1024.54 1024.37 1024.00 1023.89 1023.73 1023.42 1022.93 1022.49 1021.87 1021.54 1020.99 1020.54 1020.12 1019.63 1019.23 1018.69 1018.40 1017.95 1017.84 1017.39 1017.16 1016.72 1016.44 1016.25 1016.04 1015.74 1015.40 1015.17 1014.85 1014.63 1014.31 1013.92 1013.81
1012.91 1014.28 1016.38 1019.17 1020.74 1021.80 1022.07 1021.79 1021.15 1020.83 1021.82 1022.28 1022.49 1024.88 1024.92 1024.89 1024.70 1024.51 1024.27 1023.99 1023.89 1023.50 1023.19 1022.90 1022.31 1021.66 1021.27 1020.86 1020.48 1019.91 1019.43 1019.12 1018.68 1018.11 1017.72 1017.43 1017.10 1016.86 1016.40 1016.08 1016.06 1015.86 1015.62 1015.42 1015.11 1014.85 1014.63 1014.24 1013.95
1013.66 1014.87 1017.64 1019.80 1021.47 1022.21 1022.42 1022.57 1022.37 1022.22 1022.90 1023.13 1023.63 1024.50 1025.37 1025.17 1024.99 1024.76 1024.83 1024.80 1024.34 1024.00 1023.59 1023.43 1022.95 1022.42 1021.94 1021.40 1020.82 1020.14 1019.84 1019.54 1019.17 1018.67 1018.13 1017.66 1017.14 1016.88 1016.44 1016.11 1015.91 1015.92 1015.62 1015.23 1015.06 1014.92 1014.69 1014.44 1014.18
1013.84 1015.61 1018.35 1020.27 1021.63 1022.54 1022.77 1022.62 1023.25 1023.66 1023.84 1023.99 1023.92 1024.88 1026.19 1025.89 1025.68 1025.21 1025.02 1024.72 1024.33 1023.92 1023.74 1023.37 1023.14 1022.57 1022.01 1021.57 1021.07 1020.61 1020.28 1019.83 1019.38 1019.09 1018.77 1018.49 1018.23 1017.37 1016.84 1016.22 1016.03 1015.68 1015.46 1015.09 1014.84 1014.76 1014.49 1014.30 1014.13
1014.09 1016.20 1019.22 1020.80 1022.09 1023.01 1023.18 1023.72 1024.61 1024.20 1025.00 1024.63 1024.80 1026.06 1026.64 1026.44 1025.83 1025.28 1024.89 1024.72 1024.27 1023.88 1023.72 1023.47 1023.12 1022.59 1022.16 1021.64 1021.18 1020.65 1020.34 1020.04 1019.69 1019.32 1018.92 1018.53 1018.28 1017.99 1017.56 1016.90 1016.29 1015.60 1015.16 1014.69 1014.66 1014.53 1014.29 1014.03 1013.91
1014.62 1017.76 1020.34 1021.11 1021.96 1023.05 1023.48 1024.12 1024.95 1025.51 1025.49 1025.75 1026.08 1026.64 1026.71 1026.24 1025.67 1025.33 1025.07 1024.92 1024.62 1024.14 1023.78 1023.33 1023.06 1022.48 1022.10 1021.42 1021.01 1020.55 1020.24 1019.70 1019.41 1019.12 1018.85 1018.60 1018.24 1017.88 1017.45 1016.92 1016.37 1015.44 1015.01 1014.52 1014.15 1014.12 1014.14 1013.89 1014.02
1016.16 1019.08 1020.70 1021.21 1022.22 1023.48 1023.94 1024.39 1025.21 1026.16 1026.35 1026.69 1026.68 1026.70 1026.53 1026.25 1026.21 1026.17 1026.00 1025.64 1024.94 1024.45 1023.68 1023.31 1023.02 1022.45 1021.96 1021.25 1020.79 1020.44 1019.90 1019.57 1019.20 1018.73 1018.58 1018.25 1017.98 1017.71 1017.18 1016.87 1016.41 1015.84 1015.17 1014.60 1014.26 1014.02 1014.10 1014.19 1014.22
1018.18 1020.16 1021.34 1022.30 1022.90 1023.56 1024.56 1025.07 1025.73 1026.32 1027.04 1027.25 1027.34 1027.26 1026.87 1026.68 1026.56 1026.47 1026.30 1025.94 1025.54 1024.88 1024.03 1023.47 1022.79 1022.16 1021.81 1021.30 1020.74 1020.30 1019.74 1019.32 1018.78 1018.32 1018.16 1017.85 1017.56 1017.40 1017.19 1016.75 1016.44 1015.89 1015.35 1014.93 1014.47 1014.28 1014.12 1014.09 1014.07
1019.67 1021.21 1021.68 1022.68 1023.33 1023.81 1024.87 1025.81 1026.60 1026.81 1027.53 1027.52 1027.47 1027.30 1027.17 1027.38 1027.30 1027.03 1026.73 1026.08 1025.51 1024.91 1023.93 1023.27 1022.63 1022.30 1021.69 1021.15 1020.60 1020.10 1019.72 1019.14 1018.49 1018.06 1017.73 1017.44 1017.41 1017.29 1016.87 1016.50 1016.05 1015.75 1015.18 1014.89 1014.60 1014.19 1013.92 1013.90 1013.74
1020.21 1021.71 1022.56 1023.27 1023.69 1024.56 1025.33 1026.27 1026.81 1027.74 1027.80 1027.71 1027.67 1027.79 1028.00 1027.78 1027.56 1027.14 1026.58 1025.95 1025.43 1024.79 1024.07 1023.35 1022.68 1022.16 1021.21 1021.08 1020.32 1019.80 1019.39 1018.83 1018.29 1017.86 1017.31 1016.94 1016.89 1016.53 1016.31 1015.82 1015.51 1015.31 1014.93 1014.62 1014.20 1013.96 1013.76 1013.76 1013.55
1020.51 1021.89 1023.23 1023.73 1024.19 1025.26 1025.70 1026.94 1027.07 1028.31 1028.07 1028.17 1028.37 1028.67 1028.53 1028.23 1027.89 1027.34 1026.58 1025.99 1025.31 1024.71 1023.87 1022.87 1022.14 1021.20 1020.94 1020.35 1020.01 1019.49 1018.89 1018.38 1017.94 1017.44 1016.99 1016.57 1016.25 1015.88 1015.59 1015.36 1015.15 1014.84 1014.60 1014.28 1014.01 1013.89 1013.41 1013.40 1013.40
1021.30 1022.68 1023.44 1024.12 1024.52 1025.58 1025.34 1027.57 1028.37 1028.62 1028.42 1029.10 1029.43 1029.39 1029.04 1028.52 1027.93 1027.33 1026.53 1025.79 1024.99 1024.03 1023.06 1022.46 1021.56 1020.96 1020.51 1019.98 1019.51 1018.78 1018.39 1017.73 1017.41 1016.93 1016.46 1016.03 1015.63 1015.19 1015.03 1014.95 1014.65 1014.37 1014.07 1013.86 1013.71 1013.41 1013.06 1012.91 1013.03
1021.35 1022.47 1023.40 1023.79 1024.45 1025.20 1025.66 1028.30 1028.89 1028.89 1029.21 1030.02 1030.07 1029.66 1029.17 1028.51 1027.80 1026.95 1026.05 1025.24 1024.33 1023.60 1022.99 1022.40 1021.77 1021.21 1020.44 1019.80 1019.11 1018.36 1017.69 1017.31 1016.93 1016.48 1016.08 1015.59 1015.16 1014.73 1014.40 1014.06 1013.88 1013.69 1013.67 1013.47 1013.24 1013.11 1013.08 1012.59 1012.63
1021.76 1022.34 1023.01 1023.80 1024.43 1025.43 1026.78 1028.79 1029.37 1029.27 1029.79 1030.22 1030.28 1029.83 1029.33 1028.54 1027.70 1026.67 1025.81 1024.91 1024.13 1023.47 1022.96 1022.56 1022.01 1021.25 1020.60 1020.00 1019.02 1018.08 1017.46 1017.08 1016.57 1016.03 1015.70 1015.28 1014.81 1014.36 1014.03 1013.61 1013.17 1012.92 1012.77 1012.81 1012.84 1012.76 1012.91 1012.57 1012.22
1022.33 1022.64 1023.11 1024.00 1025.12 1026.14 1027.59 1029.03 1029.46 1029.75 1029.96 1030.51 1030.40 1030.28 1029.50 1028.69 1027.70 1026.56 1025.64 1024.72 1024.11 1023.67 1023.20 1022.68 1021.93 1021.21 1020.51 1019.82 1018.97 1018.26 1017.50 1016.82 1016.39 1015.92 1015.46 1014.93 1014.49 1013.95 1013.30 1012.75 1012.43 1012.31 1012.28 1012.14 1012.25 1012.38 1012.19 1012.58 1011.73
1022.40 1023.01 1023.74 1024.22 1025.27 1026.79 1028.32 1029.24 1029.63 1030.13 1030.33 1030.65 1030.73 1030.14 1029.78 1028.82 1027.62 1026.59 1025.70 1025.04 1024.15 1023.64 1023.16 1022.63 1021.71 1021.01 1020.32 1019.45 1018.74 1018.02 1017.22 1016.41 1015.74 1015.19 1014.84 1014.50 1014.13 1013.64 1013.13 1012.42 1011.90 1011.75 1011.67 1011.47 1011.48 1011.59 1011.87 1011.86 1011.59
1022.70 1023.28 1024.20 1024.69 1025.70 1027.00 1028.96 1029.65 1030.02 1030.48 1030.93 1031.07 1030.95 1030.38 1029.75 1028.61 1027.40 1026.43 1025.53 1024.87 1024.29 1023.81 1023.32 1022.34 1021.59 1020.91 1020.19 1019.50 1018.66 1017.87 1016.92 1016.07 1015.20 1014.33 1013.77 1013.42 1013.03 1012.72 1012.35 1011.89 1011.48 1011.07 1010.87 1010.84 1010.87 1010.92 1011.09 1011.06 1011.05
1023.49 1023.86 1024.63 1025.45 1026.41 1027.42 1028.96 1030.29 1030.87 1031.14 1031.18 1031.12 1030.81 1030.60 1029.64 1028.65 1027.40 1026.33 1025.46 1024.75 1024.28 1023.78 1023.10 1022.44 1021.79 1020.98 1020.26 1019.48 1018.48 1017.45 1016.58 1015.63 1014.69 1013.89 1013.29 1012.75 1012.22 1011.79 1011.35 1011.09 1010.88 1010.49 1010.17 1010.00 1010.06 1010.14 1010.23 1010.56 1010.56
1024.04 1023.97 1024.36 1024.90 1026.16 1027.47 1028.42 1030.72 1031.67 1031.99 1031.75 1031.52 1031.25 1030.32 1029.52 1028.55 1027.51 1026.67 1025.80 1025.03 1024.30 1023.80 1023.24 1022.68 1022.00 1021.19 1020.24 1019.33 1018.32 1017.30 1016.20 1015.13 1014.28 1013.49 1012.68 1012.05 1011.51 1010.97 1010.51 1010.10 1009.89 1009.70 1009.31 1009.25 1009.20 1009.30 1009.44 1009.76 1010.25
1024.38 1024.06 1024.08 1024.67 1026.02 1027.12 1029.04 1030.67 1032.81 1032.45 1032.27 1031.68 1031.28 1030.64 1029.63 1028.74 1027.94 1026.94 1026.05 1025.47 1024.73 1023.84 1023.17 1022.52 1021.85 1020.92 1019.96 1018.98 1018.01 1016.89 1015.77 1014.75 1013.64 1012.79 1011.94 1011.23 1010.60 1010.07 1009.63 1009.31 1008.95 1008.87 1008.63 1008.39 1008.33 1008.50 1008.80 1008.98 1009.44
1024.65 1024.47 1024.75 1025.58 1026.65 1028.51 1029.59 1030.64 1033.21 1033.12 1033.24 1032.42 1031.68 1030.63 1029.67 1028.55 1027.70 1027.02 1026.31 1025.57 1024.65 1023.72 1023.01 1022.24 1021.54 1020.55 1019.59 1018.52 1017.45 1016.40 1015.40 1013.98 1012.81 1011.92 1011.10 1010.22 1009.50 1008.96 1008.56 1008.25 1008.01 1007.88 1007.82 1007.67 1007.76 1007.88 1008.08 1008.38 1008.59
1025.89 1026.17 1026.95 1027.73 1028.43 1029.62 1030.35 1031.64 1033.69 1033.55 1033.37 1032.92 1031.97 1030.91 1029.89 1028.96 1028.09 1027.10 1026.08 1025.14 1024.36 1023.74 1023.05 1022.35 1021.62 1020.39 1019.27 1018.22 1017.05 1015.98 1014.86 1013.71 1012.72 1011.70 1010.81 1009.89 1009.00 1008.27 1007.53 1007.16 1007.06 1006.96 1007.02 1007.13 1007.11 1007.32 1007.38 1007.75 1008.08
1028.23 1028.94 1029.95 1030.65 1031.41 1031.47 1031.23 1032.56 1033.54 1033.56 1033.45 1032.97 1032.14 1031.05 1030.11 1029.25 1028.56 1027.62 1026.73 1025.79 1024.94 1024.18 1023.49 1022.71 1021.72 1020.36 1019.38 1018.20 1016.96 1015.83 1014.65 1013.63 1012.66 1011.75 1010.76 1009.67 1008.71 1007.60 1006.50 1005.72 1006.12 1006.48 1006.51 1006.51 1006.49 1006.80 1006.99 1007.16 1007.43
1029.32 1030.24 1031.15 1032.02 1033.06 1033.89 1033.26 1033.50 1033.52 1033.26 1033.26 1032.84 1031.87 1030.93 1030.08 1029.27 1028.43 1027.44 1026.62 1026.01 1025.19 1024.38 1023.81 1023.05 1021.89 1020.71 1019.57 1018.18 1016.91 1015.67 1014.54 1013.39 1012.36 1011.28 1010.36 1009.34 1008.33 1007.25 1005.79 1005.02 1005.92 1006.17 1006.14 1006.33 1006.37 1006.29 1006.48 1006.62 1006.96
1030.34 1031.41 1032.29 1033.60 1035.42 1035.91 1034.69 1034.82 1034.88 1034.52 1033.88 1032.92 1031.89 1031.16 1030.28 1029.49 1028.50 1027.68 1026.87 1026.16 1025.51 1024.84 1024.16 1023.15 1021.98 1020.93 1019.65 1018.22 1016.91 1015.68 1014.46 1013.36 1012.32 1011.17 1010.07 1008.92 1007.95 1007.07 1006.54 1006.13 1006.03 1005.93 1005.86 1005.84 1006.17 1006.27 1006.21 1006.31 1006.59
1031.82 1032.78 1034.13 1035.58 1037.23 1038.08 1037.52 1035.70 1035.45 1035.42 1034.44 1033.29 1032.62 1031.87 1031.08 1029.95 1028.91 1027.96 1027.28 1026.61 1026.02 1025.12 1024.19 1023.11 1021.83 1020.70 1019.42 1018.11 1016.96 1015.83 1014.64 1013.55 1012.62 1011.51 1010.37 1009.06 1007.83 1007.27 1006.81 1006.47 1006.18 1005.93 1005.84 1005.78 1005.79 1005.82 1006.09 1006.20 1006.35
1032.85 1034.13 1035.53 1037.14 1038.65 1039.23 1039.16 1036.56 1035.62 1035.29 1034.40 1034.04 1033.17 1032.38 1031.43 1030.58 1029.56 1028.44 1027.73 1026.90 1026.03 1025.10 1024.16 1023.13 1021.95 1020.84 1019.48 1018.40 1017.41 1016.25 1015.12 1013.93 1012.99 1011.96 1010.85 1009.69 1008.47 1007.44 1007.05 1006.69 1006.37 1006.11 1005.96 1005.86 1005.73 1005.70 1005.70 1005.89 1006.13
Wind_Speed
6 5 2 4 5 7 7 7 5 6 7 9 16 16 17 13 6 3 7 10 10 7 7 6 19 21 21 23 23 22 22 22 23 23 24 23 24 21 18 15 12 8 8 8 8 7 7 6 6
3 2 5 2 7 4 5 8 16 13 8 11 12 7 8 7 6 5 4 7 7 9 8 10 20 20 21 21 21 21 21 21 21 21 21 21 22 22 23 21 18 12 9 9 9 8 8 8 8
1 0 4 5 5 4 3 5 3 9 12 4 7 7 5 5 3 2 6 8 7 8 7 9 19 21 21 21 20 20 19 20 21 20 20 20 19 17 19 20 21 18 16 13 10 9 9 9 10
2 5 6 7 9 8 3 7 6 2 11 14 8 10 4 2 3 4 5 6 5 6 6 12 17 19 21 21 22 21 20 21 19 21 21 20 20 19 15 16 17 17 17 15 15 13 10 8 9
4 3 7 6 7 3 6 6 14 15 8 14 3 3 5 1 3 5 6 6 5 6 6 7 20 21 22 22 23 23 22 23 24 21 19 20 20 20 18 14 14 14 14 14 14 13 13 12 8
4 4 5 5 6 3 4 6 14 15 13 4 9 6 4 6 3 5 8 7 7 7 7 9 16 20 22 22 23 22 23 24 24 24 26 25 22 20 18 20 18 14 16 14 13 13 13 12 11
5 5 5 7 6 2 5 4 9 12 8 12 5 6 3 8 8 7 5 6 7 6 7 7 8 13 18 20 22 23 23 24 24 26 23 23 24 26 24 20 20 18 17 15 14 13 13 13 13
5 6 4 5 2 3 6 5 10 8 10 2 5 6 4 5 6 5 4 7 7 7 6 6 6 6 6 6 16 22 22 23 24 22 22 24 22 22 21 24 17 18 21 17 15 14 14 13 14
4 7 3 3 6 6 2 5 7 4 10 11 4 4 3 4 6 8 7 8 7 7 7 7 7 7 7 7 9 12 15 20 21 16 18 17 6 11 14 18 24 24 21 20 17 13 15 12 11
7 5 3 2 5 5 6 8 6 5 6 7 7 6 7 6 7 7 7 8 8 9 9 7 8 7 7 7 7 7 8 5 6 7 7 5 6 7 14 16 22 22 24 18 17 15 15 10 3
5 5 4 7 16 16 12 11 3 8 6 2 4 3 5 5 9 10 9 7 7 7 5 10 8 8 8 7 6 4 4 5 5 7 6 6 8 4 5 5 6 6 14 7 7 6 4 4 3
9 7 5 8 4 5 5 5 7 7 5 6 4 1 6 10 8 7 8 9 8 9 9 10 10 8 9 6 5 5 5 6 5 6 7 4 3 5 5 4 5 6 6 7 6 4 5 6 4
10 4 8 12 15 10 13 9 9 6 6 6 7 10 9 8 8 8 8 9 9 9 9 11 9 9 11 7 6 5 6 7 8 6 8 5 5 7 6 6 5 6 5 5 7 5 4 5 5
7 12 14 7 9 7 13 5 5 5 5 9 11 10 9 10 9 7 10 9 9 9 11 9 9 14 6 11 7 6 7 9 7 7 7 10 8 7 7 7 6 5 4 7 5 5 4 5 4
16 9 6 6 6 7 16 10 5 1 9 10 10 9 9 8 9 10 12 9 9 10 12 15 14 15 14 10 8 9 6 8 7 7 10 10 9 11 9 7 7 5 5 6 6 8 5 4 4
5 5 3 7 7 6 4 2 3 4 8 7 8 8 8 9 10 10 12 12 10 12 10 15 14 16 15 14 10 10 10 7 7 7 8 10 11 10 9 8 5 5 5 4 4 4 6 4 4
5 2 3 4 2 5 5 4 3 2 8 7 7 8 9 10 10 10 13 15 13 14 15 12 17 18 14 15 14 11 11 7 7 8 7 9 9 11 8 8 8 6 4 4 4 4 6 5 4
4 2 3 4 2 10 12 6 4 5 7 5 8 9 9 13 14 13 15 15 18 14 9 18 15 15 17 12 11 10 9 8 6 9 9 13 11 15 13 11 9 6 5 4 4 5 4 4 5
3 3 4 1 5 7 8 7 7 4 5 9 8 12 11 13 10 12 15 16 14 14 17 18 18 18 14 11 11 11 11 10 9 9 13 13 11 14 13 9 10 8 7 10 7 5 6 5 4
3 4 4 2 7 8 5 5 2 6 4 4 8 9 10 14 16 18 18 19 15 18 19 18 20 19 14 11 11 10 11 10 11 10 11 12 13 13 12 10 10 12 10 9 9 10 5 4 4
4 6 3 6 6 8 10 3 5 5 5 7 10 8 12 16 19 20 22 20 19 18 19 19 20 19 17 17 12 10 10 10 9 9 10 11 13 14 14 13 12 12 8 8 9 8 8 4 3
4 3 8 6 6 4 4 2 3 7 8 12 10 14 15 18 16 19 19 20 20 18 17 18 19 19 16 17 14 16 12 12 11 10 10 11 14 14 15 15 13 13 9 8 7 6 5 5 4
8 13 3 4 5 4 3 6 7 5 10 17 17 15 16 17 17 21 20 20 18 17 17 16 18 19 18 17 15 13 14 12 10 10 14 13 12 14 14 15 14 13 10 10 9 9 6 6 5
13 5 6 5 3 3 4 4 4 7 9 14 14 17 17 18 21 20 17 19 18 18 18 18 20 21 19 18 18 16 17 17 13 14 12 10 9 9 12 13 12 11 11 12 8 9 7 6 5
11 7 5 5 6 4 2 7 4 6 7 9 15 16 18 15 19 20 21 21 22 24 23 19 21 22 20 20 20 18 18 19 17 15 12 15 10 9 11 12 11 9 9 11 9 8 9 7 6
6 5 4 4 3 6 4 4 4 3 6 9 12 15 17 19 18 18 20 18 19 21 22 24 22 22 21 22 21 18 20 12 12 13 13 10 10 11 15 12 9 10 10 7 7 7 6 6 6
6 6 1 1 2 3 3 4 2 18 16 15 17 17 18 21 20 21 21 20 19 20 20 20 22 21 20 22 18 19 17 16 15 17 13 10 13 12 16 0 4 7 7 8 7 6 8 7 4
7 2 3 5 5 6 4 1 4 15 15 17 19 20 19 21 20 20 18 21 19 22 17 20 19 19 20 20 17 17 18 18 17 16 16 15 12 11 7 3 3 5 6 6 7 6 7 7 6
7 6 5 5 3 4 5 4 2 8 12 17 17 17 19 21 21 20 20 18 18 20 20 19 18 20 19 17 19 19 18 17 17 16 17 17 10 9 7 6 4 3 3 4 3 3 6 6 8
3 3 4 6 6 1 4 8 3 6 14 14 16 17 18 18 19 17 20 19 17 21 19 20 18 18 18 17 18 18 18 17 17 17 18 18 17 8 7 5 3 3 3 3 4 6 5 6 7
Wind_Direction
334 322 86 44 56 64 34 29 357 4 69 52 58 75 97 50 35 102 262 271 306 312 318 349 5 15 19 20 23 22 19 16 13 9 7 4 5 4 2 350 324 295 284 278 276 258 250 230 230
358 6 40 79 70 65 66 12 45 29 119 130 62 58 57 83 61 127 253 283 289 308 331 321 13 14 11 17 14 12 12 13 12 9 8 3 2 0 1 356 359 341 322 298 280 271 264 250 245
251 131 78 72 58 54 99 330 306 69 55 19 104 56 48 10 108 199 243 280 312 310 327 348 15 8 7 8 8 7 2 360 360 1 360 0 358 359 356 352 355 356 1 348 333 308 281 266 252
59 14 36 72 87 15 81 333 297 348 28 33 91 65 62 318 172 209 279 296 324 329 359 2 5 358 360 358 355 353 353 355 352 350 345 349 350 348 348 349 350 351 354 352 344 341 324 304 271
40 61 59 86 65 79 40 36 42 55 91 48 92 98 107 264 241 262 289 320 323 354 349 350 359 356 353 350 345 343 346 347 342 338 336 334 334 337 338 339 336 339 339 339 338 337 323 319 311
44 96 92 101 87 135 98 52 49 61 49 113 85 112 57 346 303 329 14 11 2 6 347 1 6 5 358 354 347 343 345 339 337 339 341 331 327 321 324 327 326 318 322 323 323 322 319 316 311
98 77 93 130 143 63 0 75 32 54 44 22 95 81 92 24 7 38 7 357 1 3 3 355 350 354 356 352 346 339 340 336 336 331 332 333 335 340 333 315 316 315 310 314 311 309 311 313 311
94 78 69 32 110 90 7 90 52 55 31 122 32 44 32 319 328 7 352 360 355 350 348 334 324 317 321 322 335 336 334 333 331 330 328 326 333 332 329 322 305 303 310 300 303 304 305 305 308
73 62 51 151 161 157 225 120 40 52 77 54 67 102 215 291 3 6 356 347 342 338 326 317 320 317 317 310 319 324 317 322 324 320 321 330 319 323 325 318 323 309 304 297 292 299 309 315 341
71 88 153 7 100 102 63 74 84 76 54 43 45 22 14 9 3 352 342 328 329 325 322 317 307 307 306 305 312 301 301 282 282 297 300 295 302 304 317 319 318 319 315 299 303 294 298 316 312
38 109 116 61 111 101 89 65 94 119 49 83 92 27 349 347 358 2 345 329 302 300 296 308 307 299 300 294 297 289 286 292 289 274 271 277 298 282 295 298 300 304 306 296 283 287 278 270 283
95 35 108 166 131 100 85 88 80 73 99 116 104 46 10 6 345 333 323 309 312 310 295 302 305 313 299 287 288 291 294 290 291 282 282 268 272 276 272 270 272 284 289 292 281 275 261 266 258
87 119 58 99 91 83 101 88 92 73 87 71 40 23 12 355 344 326 312 303 313 306 303 295 293 291 295 303 288 288 289 290 272 278 287 277 261 282 276 261 259 271 280 285 279 253 258 267 253
114 107 120 111 100 106 103 68 87 10 54 36 31 7 358 348 331 309 315 304 304 295 284 283 291 316 303 305 281 271 279 284 276 268 263 270 273 278 275 265 251 249 264 282 267 259 230 229 247
121 102 86 143 143 130 111 43 71 8 54 35 17 359 338 321 319 311 300 292 281 314 317 323 318 324 314 303 289 301 274 280 276 272 271 269 269 279 271 271 270 248 257 266 283 263 239 212 231
90 117 143 209 168 181 49 123 57 55 67 29 9 334 326 323 311 298 314 316 308 325 324 321 331 332 326 314 315 307 300 285 272 272 269 260 270 268 267 269 262 255 242 251 256 270 273 222 218
18 213 123 111 179 99 62 142 115 73 69 23 333 337 328 325 319 321 326 329 326 333 328 348 335 329 337 329 315 315 308 299 294 294 287 275 268 272 263 266 267 246 239 245 238 262 245 241 215
272 16 63 96 120 58 95 121 162 67 73 348 342 323 330 338 329 320 330 337 334 337 357 339 334 334 335 327 319 313 312 312 316 304 295 295 294 286 274 269 265 247 240 238 235 230 232 251 213
226 115 59 322 149 93 111 130 167 78 51 13 350 356 336 316 302 325 338 345 337 347 345 340 337 337 333 326 321 316 310 305 296 287 285 286 284 290 291 284 269 251 245 259 236 238 226 249 234
47 118 32 352 112 93 141 142 162 64 12 345 344 332 313 333 338 343 345 345 353 349 344 342 342 337 333 324 318 307 304 300 293 288 285 283 281 276 276 282 282 263 251 243 240 236 234 230 186
352 115 154 206 100 51 128 50 43 337 345 347 358 309 331 343 342 344 347 348 352 351 347 345 338 336 334 330 317 311 302 296 298 295 291 285 283 281 271 267 268 270 249 238 231 222 189 204 238
315 160 302 216 147 202 197 274 358 339 329 357 341 348 340 339 345 347 344 348 350 347 342 344 338 334 331 327 323 320 312 308 304 297 292 287 279 277 275 270 258 266 260 229 216 226 209 163 215
259 319 266 158 146 110 147 82 302 324 342 352 347 338 340 341 345 346 345 346 343 345 341 343 338 335 332 327 323 319 311 302 301 295 294 288 279 269 265 268 261 258 256 256 232 230 212 206 197
316 7 34 55 89 55 327 141 321 357 324 337 342 338 339 344 347 344 343 344 345 348 347 347 344 336 333 331 330 327 324 320 318 317 307 297 285 274 263 258 259 250 255 247 236 225 208 207 209
7 36 356 355 6 233 158 59 218 294 323 320 331 336 343 348 346 343 347 349 350 350 350 347 342 333 333 336 333 332 330 332 324 322 316 312 304 293 276 256 250 248 252 248 252 229 216 213 206
0 65 113 272 292 295 348 141 203 242 317 333 337 340 344 347 344 344 347 348 346 348 352 349 341 332 337 334 334 333 342 333 331 326 320 310 306 298 290 258 228 257 247 298 230 236 233 214 213
332 32 269 88 352 14 287 341 340 359 351 345 344 347 348 349 344 344 347 350 348 348 352 346 338 338 337 334 337 336 337 333 329 326 318 316 311 313 326 156 213 255 247 236 286 226 231 236 197
83 311 12 16 34 315 306 308 279 336 337 345 347 348 347 345 345 345 350 348 350 351 347 344 336 337 335 333 340 337 335 338 341 339 336 326 317 324 354 3 298 287 234 238 221 258 223 223 225
351 14 31 108 98 175 304 267 30 289 341 343 341 342 346 343 344 344 347 347 345 350 350 342 339 340 339 335 344 341 341 347 349 350 349 348 336 342 344 341 323 299 278 262 265 216 233 242 221
71 92 99 111 281 118 153 279 133 306 360 342 335 343 343 341 340 344 345 345 343 352 349 343 340 339 340 349 346 344 343 352 353 353 352 352 352 349 339 335 329 309 296 291 258 221 228 210 231